Regional Weather Roundup
Issued by NWS

Home | Current Version | Previous Version | Text Only | Print | Product List | Glossary Off
Versions: 1 2 3 4 5 6 7 8 9 10 11 12 13 14 15 16 17 18 19 20 21 22 23 24 25 26 27 28 29 30 31 32 33 34 35 36 37 38 39 40 41 42 43 44 45 46 47 48 49 50

000
ASUS43 KMPX 191301
RWRMN
WEATHER ROUNDUP FOR MINNESOTA
NATIONAL WEATHER SERVICE TWIN CITIES/CHANHASSEN MN
700 AM CST FRI DEC 19 2014


NOTE: "FAIR" INDICATES FEW OR NO CLOUDS BELOW 12,000 FEET WITH NO
SIGNIFICANT WEATHER AND/OR OBSTRUCTIONS TO VISIBILITY. N/A MEANS
CURRENT SKY AND/OR WEATHER CONDITIONS ARE NOT AVAILABLE.

MNZ060>063-068>070-191400-
   Twin Cities Metro

CITY           SKY/WX    TMP DP  RH WIND       PRES   REMARKS
TWIN CITIES    CLOUDY    22  17  81 SE6       30.25S WCI  14
ST PAUL        CLOUDY    23  18  81 SE7       30.27S WCI  15
CRYSTAL        CLOUDY    23  18  81 SE6       30.23F WCI  16
BLAINE         FLURRIES  25  19  80 SE5       30.23F WCI  19
LAKEVILLE      MOCLDY    21  19  93 CALM      30.24S
EDEN PRAIRIE   CLOUDY    23  18  81 SE7       30.23S WCI  15
SOUTH ST PAUL  CLOUDY    24  19  81 SE3       30.26S
LAKE ELMO      CLOUDY    23  19  86 S5        30.26S WCI  17
$$
MNZ001>005-007-008-013>017-022>024-027-028-191400-
   Northwest Minnesota

CITY           SKY/WX    TMP DP  RH WIND       PRES   REMARKS
BEMIDJI        LGT SNOW  19  16  89 SE7       30.12S WCI   9
HALLOCK        CLOUDY    23  21  93 S13       30.08S FOG     WCI  11
ROSEAU         CLOUDY    21  18  86 SE9       30.11S WCI  11
WARROAD        CLOUDY    21  18  86 S9        30.12S WCI  11
THIEF RVR FALL CLOUDY    21  18  86 SE9       30.09S WCI  11
CROOKSTON      CLOUDY    23  21  93 S14       30.10S FOG     WCI  11
FOSSTON        CLOUDY    19  18  93 SE8       30.10F WCI   9
DETROIT LAKES  CLOUDY    23  21  93 SE7       30.11F FOG     WCI  15
MOORHEAD       CLOUDY    25  25 100 S12       30.10F FOG     WCI  14
PARK RAPIDS    CLOUDY    20  16  84 SE12      30.12S WCI   8
MAHNOMEN       CLOUDY    21  19  89 SE8       30.10S WCI  12
$$
MNZ006-009>011-018-025>026-191400-
   North Central Minnesota

CITY           SKY/WX    TMP DP  RH WIND       PRES   REMARKS
BAUDETTE       CLOUDY    20  16  84 SE6       30.13S WCI  12
FLAG ISLAND    CLOUDY    19  18  93 S15       30.11F WCI   5
INTL FALLS     CLOUDY    21  17  84 S6        30.16F WCI  13
WASKISH        FLURRIES  19  18  93 CALM      30.14S
BIG FORK       CLOUDY    19  18  93 S5        30.17R WCI  13
LONGVILLE      CLOUDY    19  16  86 SE7       30.16S WCI  10
GRAND RAPIDS   CLOUDY    18  16  93 SE7       30.17R WCI   8
CRANE LAKE     CLOUDY    21  19  93 S5        30.21S WCI  15
ORR            FLURRIES  19  16  86 S5        30.16S WCI  13
COOK           CLOUDY    19  18  93 SE3       30.19S
WALKER         CLOUDY    18  15  87 SE5       30.13F WCI  11
$$
MNZ012-019>021-037-191400-
   Northeast Minnesota

CITY           SKY/WX    TMP DP  RH WIND       PRES   REMARKS
DULUTH         CLOUDY    21  18  88 S5        30.20R WCI  15
ELY            CLOUDY    21  18  86 S3        30.19S
HIBBING        CLOUDY    19  16  88 S5        30.19S WCI  12
EVELETH        MIX PCPN  21  19  93 S5        30.20S WCI  15
DULUTH HARBOR  CLOUDY    25  19  80 CALM      30.27R
TWO HARBORS    CLOUDY    25  19  80 W3        30.21S
SILVER BAY     CLOUDY    25  21  86 S3        30.21S
GRAND MARAIS     N/A     30  22  72 SW10      30.26S WCI  21
G MARAIS ARPRT CLOUDY    19  16  86 SE3       30.19S
$$
MNZ029>031-032-039>041-046>048-054>057-064-191400-
   West Central Minnesota

CITY           SKY/WX    TMP DP  RH WIND       PRES   REMARKS
FERGUS FALLS   CLOUDY    23  23 100 S10       30.15F FOG     WCI  12
WHEATON        CLOUDY    23  21  93 SE10      30.14F FOG     WCI  12
MORRIS         CLOUDY    25  23  93 SE12      30.13S FOG     WCI  14
ALEXANDRIA     CLOUDY    22  21  96 SE9       30.14S FOG     WCI  12
ELBOW LAKE     CLOUDY    23  22  98 SE12      30.13S FOG     WCI  12
WADENA         CLOUDY    19  18  93 NW9       30.13S FOG     WCI   9
GLENWOOD       CLOUDY    21  21 100 SE9       30.15S FOG     WCI  11
APPLETON       CLOUDY    27  25  93 SE5       30.15S WCI  21
BENSON         CLOUDY    25  23  93 S9        30.16R WCI  15
ORTONVILLE     CLOUDY    27  23  86 SE8       30.13S FOG     WCI  18
MADISON        PTCLDY    30  28  93 SE6       30.14S FOG     WCI  24
WILLMAR        CLOUDY    27  23  86 SE8       30.18F FOG     WCI  18
$$
MNZ033>034-036-042>043-049>051-058-059-191400-
   Central Minnesota

CITY           SKY/WX    TMP DP  RH WIND       PRES   REMARKS
ST CLOUD       CLOUDY    22  17  81 SE8       30.21S WCI  12
SAUK CENTRE    CLOUDY    21  20  97 SE7       30.17S FOG     WCI  12
PAYNESVILLE    CLOUDY    19  19 100 E8        30.18F FOG     WCI   9
AITKIN         CLOUDY    21  18  86 SE5       30.18S WCI  15
PINE RIVER     CLOUDY    19  18  93 SE7       30.19S WCI  10
BRAINERD       CLOUDY    20  16  84 SE6       30.18S FOG     WCI  12
STAPLES        CLOUDY    18  18 100 SE7       30.15F WCI   8
LONG PRAIRIE   CLOUDY    19  19 100 SE8       30.16S FOG     WCI   9
LITTLE FALLS   CLOUDY    21  18  86 SE8       30.19F WCI  12
LITCHFIELD     CLOUDY    23  23 100 SE6       30.20S FOG     WCI  16
BUFFALO        CLOUDY    22  19  87 SE3       30.23S
MAPLE LAKE     MOCLDY    23  21  92 SE5       30.22S WCI  17
$$
MNZ037-044-045-052-053-191400-
   East Central Minnesota

CITY           SKY/WX    TMP DP  RH WIND       PRES   REMARKS
PRINCETON      CLOUDY    21  18  86 CALM      30.22S
MORA           CLOUDY    19  16  86 SE3       30.24S
CAMBRIDGE      LGT SNOW  23  16  74 SE3       30.22S
RUSH CITY      CLOUDY    22  18  86 S6        30.24S WCI  14
MOOSE LAKE     CLOUDY    21  19  93 S5        30.20S WCI  15
HINCKLEY       FLURRIES  23  19  86 CALM      30.23S
CLOQUET        CLOUDY    19  19 100 SE3       30.20S
MCGREGOR       CLOUDY    21  19  93 SE6       30.20S WCI  14
$$
MNZ071>073-080-081-089-090-097-098-191400-
   Southwest Minnesota

CITY           SKY/WX    TMP DP  RH WIND       PRES   REMARKS
MONTEVIDEO     CLOUDY    27  27 100 S7        30.16F FOG     WCI  19
GRANITE FALLS  CLOUDY    26  25  94 SE12      30.18S WCI  16
CANBY          CLOUDY    29  27  91 S6        30.15S WCI  23
MARSHALL       CLOUDY    28  25  86 S8        30.15S WCI  20
REDWOOD FALLS  CLOUDY    27  24  89 SE8       30.18F WCI  19
OLIVIA         CLOUDY    28  27  93 SE8       30.18S WCI  20
PIPESTONE      CLOUDY    28  27  93 SW5       30.12F WCI  23
WINDOM         CLOUDY    28  27  93 CALM      30.17F FOG
WORTHINGTON    CLOUDY    27  25  93 S9        30.17S WCI  17
JACKSON        CLOUDY    28  28 100 S6        30.18F FOG     WCI  22
TRACY          CLOUDY    29  28  94 S3        30.15F FOG
SLAYTON        CLOUDY    28  28 100 S3        30.15F FOG
$$
MNZ065>067-074>077-082>085-091>093-191400-
   South Central Minnesota

CITY           SKY/WX    TMP DP  RH WIND       PRES   REMARKS
MANKATO        CLOUDY    27  19  74 S7        30.22S WCI  19
NEW ULM        PTCLDY    25  25 100 S8        30.20F WCI  16
ST JAMES       CLOUDY    28  25  86 SE7       30.21F WCI  21
FAIRMONT       CLOUDY    27  21  80 S8        30.20F WCI  18
GLENCOE        CLOUDY    25  24  96 SE5       30.22S FOG     WCI  19
FARIBAULT      CLOUDY    25  21  86 S5        30.24S WCI  19
OWATONNA       MOCLDY    25  21  86 SE7       30.22F FOG     WCI  17
WASECA         CLOUDY    25  21  86 S5        30.24S WCI  19
ALBERT LEA     CLOUDY    25  23  93 S5        30.23S WCI  19
$$
MNZ078>079-086>088-094>096-191400-
   Southeast Minnesota

CITY           SKY/WX    TMP DP  RH WIND       PRES   REMARKS
ROCHESTER      CLOUDY    23  18  81 S7        30.24S WCI  15
RED WING       CLOUDY    25  18  74 SE5       30.27R WCI  19
STANTON        CLOUDY    25  20  83 SE5       30.23F WCI  19
DODGE CENTER   CLOUDY    23  21  93 S7        30.22F FOG     WCI  15
WINONA         CLOUDY    25  19  80 SE3       30.30R
AUSTIN         CLOUDY    23  19  86 S3        30.24S
PRESTON        CLOUDY    22  18  86 CALM      30.25F
$$
ABBREVIATIONS USED IN REMARKS
   TC - TEMPERATURES IN CELSIUS
  WCI - WIND CHILL INDEX
   HX - HEAT INDEX
  VSB - VISIBILITY
$$


USA.gov is the U.S. government's official web portal to all federal, state and local government web resources and services.